| time (UTC) | temp F | wind direction | speed knots | gust knots | rain 1hr in | rain 24hr in | rain mn in | humidity % | barometer mb |
| 20260509041748 | 53 | 133 | 0.0 | 0.0 | 0.00 | 0.00 | 0.00 | 83 | 1006.3 |
| 20260509041245 | 53 | 133 | 0.0 | 0.0 | 0.00 | 0.00 | 0.00 | 83 | 1006.6 |
| 20260509040743 | 53 | 133 | 0.0 | 0.0 | 0.00 | 0.00 | 0.00 | 83 | 1006.7 |
| 20260509040240 | 53 | 132 | 0.0 | 0.0 | 0.00 | 0.00 | 0.00 | 82 | 1006.7 |
| 20260509035736 | 53 | 133 | 0.0 | 0.0 | 0.00 | 0.00 | 0.00 | 82 | 1006.8 |
| 20260509035233 | 54 | 135 | 0.0 | 0.0 | 0.00 | 0.00 | 0.00 | 82 | 1006.7 |
| 20260509034730 | 54 | 135 | 0.0 | 0.0 | 0.00 | 0.00 | 0.00 | 82 | 1006.8 |
| 20260509034228 | 54 | 134 | 0.0 | 0.0 | 0.00 | 0.00 | 0.00 | 82 | 1006.9 |
| 20260509033725 | 54 | 131 | 0.0 | 0.0 | 0.00 | 0.00 | 0.00 | 82 | 1007.0 |
| 20260509033222 | 54 | 130 | 0.0 | 0.0 | 0.00 | 0.00 | 0.00 | 81 | 1006.9 |
| 20260509032719 | 54 | 130 | 0.0 | 0.0 | 0.00 | 0.00 | 0.00 | 81 | 1006.9 |
| 20260509032216 | 54 | 129 | 0.0 | 0.0 | 0.00 | 0.00 | 0.00 | 81 | 1007.1 |
| 20260509031713 | 54 | 135 | 0.0 | 0.0 | 0.00 | 0.00 | 0.00 | 81 | 1007.1 |
| 20260509031211 | 54 | 132 | 0.0 | 0.0 | 0.00 | 0.00 | 0.00 | 81 | 1007.1 |
| 20260509030709 | 54 | 133 | 0.0 | 0.0 | 0.00 | 0.00 | 0.00 | 81 | 1007.1 |
| 20260509030206 | 54 | 131 | 0.0 | 0.0 | 0.00 | 0.00 | 0.00 | 80 | 1007.3 |
| 20260509025702 | 54 | 129 | 0.0 | 0.9 | 0.00 | 0.00 | 0.00 | 80 | 1007.3 |
| 20260509025158 | 54 | 133 | 0.9 | 0.9 | 0.00 | 0.00 | 0.00 | 80 | 1007.2 |
| 20260509024653 | 54 | 134 | 1.7 | 1.7 | 0.00 | 0.00 | 0.00 | 80 | 1007.3 |
| 20260509024149 | 54 | 145 | 0.9 | 1.7 | 0.00 | 0.00 | 0.00 | 80 | 1007.5 |
| 20260509023648 | 54 | 129 | 1.7 | 1.7 | 0.00 | 0.00 | 0.00 | 80 | 1007.1 |
| 20260509023144 | 54 | 142 | 1.7 | 2.6 | 0.00 | 0.00 | 0.00 | 80 | 1007.3 |
| 20260509022640 | 54 | 137 | 1.7 | 2.6 | 0.00 | 0.00 | 0.00 | 80 | 1007.5 |
| 20260509022138 | 54 | 145 | 2.6 | 2.6 | 0.00 | 0.00 | 0.00 | 81 | 1007.5 |
| 20260509021635 | 54 | 128 | 0.9 | 1.7 | 0.00 | 0.00 | 0.00 | 79 | 1007.3 |
| 20260509021132 | 54 | 134 | 0.9 | 1.7 | 0.00 | 0.00 | 0.00 | 78 | 1007.4 |
| 20260509020630 | 54 | 135 | 0.9 | 0.9 | 0.00 | 0.00 | 0.00 | 77 | 1007.4 |
| 20260509020127 | 55 | 132 | 0.9 | 1.7 | 0.00 | 0.00 | 0.00 | 77 | 1007.5 |
| 20260509015626 | 55 | 132 | 0.9 | 0.9 | 0.00 | 0.00 | 0.00 | 76 | 1007.5 |
| 20260509015123 | 56 | 132 | 0.0 | 0.9 | 0.00 | 0.00 | 0.00 | 74 | 1007.5 |
| 20260509014619 | 56 | 132 | 0.9 | 0.9 | 0.00 | 0.00 | 0.00 | 73 | 1007.3 |
| 20260509014116 | 56 | 131 | 0.9 | 0.9 | 0.00 | 0.00 | 0.00 | 73 | 1007.4 |
| 20260509013613 | 57 | 132 | 0.9 | 0.9 | 0.00 | 0.00 | 0.00 | 72 | 1007.2 |
| 20260509013108 | 57 | 131 | 0.9 | 0.9 | 0.00 | 0.00 | 0.00 | 70 | 1007.0 |
| 20260509012605 | 57 | 132 | 0.9 | 0.9 | 0.00 | 0.00 | 0.00 | 69 | 1007.1 |
| 20260509012102 | 58 | 132 | 0.9 | 0.9 | 0.00 | 0.00 | 0.00 | 68 | 1006.9 |
| 20260509011600 | 58 | 132 | 0.9 | 0.9 | 0.00 | 0.00 | 0.00 | 67 | 1007.2 |
| 20260509011057 | 58 | 132 | 0.9 | 0.9 | 0.00 | 0.00 | 0.00 | 67 | 1006.8 |
| 20260509010555 | 59 | 132 | 0.9 | 0.9 | 0.00 | 0.00 | 0.00 | 67 | 1007.1 |
| 20260509010051 | 59 | 132 | 0.9 | 0.9 | 0.00 | 0.00 | 0.00 | 67 | 1006.9 |
| 20260509005549 | 59 | 131 | 0.9 | 0.9 | 0.00 | 0.00 | 0.00 | 67 | 1007.3 |
| 20260509005044 | 59 | 130 | 0.9 | 1.7 | 0.00 | 0.00 | 0.00 | 65 | 1006.9 |
| 20260509004541 | 60 | 132 | 0.9 | 0.9 | 0.00 | 0.00 | 0.00 | 65 | 1007.1 |
| 20260509004038 | 60 | 136 | 0.9 | 1.7 | 0.00 | 0.00 | 0.00 | 64 | 1007.2 |
| 20260509003536 | 60 | 135 | 0.9 | 0.9 | 0.00 | 0.00 | 0.00 | 64 | 1007.3 |
| 20260509003033 | 61 | 130 | 0.9 | 0.9 | 0.00 | 0.00 | 0.00 | 62 | 1007.1 |
| 20260509002531 | 61 | 129 | 0.9 | 0.9 | 0.00 | 0.00 | 0.00 | 57 | 1007.0 |
| 20260509002028 | 62 | 129 | 0.0 | 0.9 | 0.00 | 0.00 | 0.00 | 57 | 1007.2 |
| 20260509001525 | 62 | 129 | 0.0 | 0.0 | 0.00 | 0.00 | 0.00 | 57 | 1007.2 |
| 20260509001021 | 63 | 129 | 0.0 | 0.0 | 0.00 | 0.00 | 0.00 | 54 | 1007.2 |
| 20260509000520 | 63 | 123 | 0.0 | 0.0 | 0.00 | 0.00 | 0.00 | 56 | 1007.3 |
| 20260509000015 | 64 | 130 | 0.0 | 0.0 | 0.00 | 0.00 | 0.00 | 52 | 1007.1 |
| 20260508235514 | 65 | 132 | 0.9 | 0.9 | 0.00 | 0.00 | 0.00 | 51 | 1007.0 |
| 20260508235009 | 66 | 135 | 1.7 | 1.7 | 0.00 | 0.00 | 0.00 | 48 | 1007.2 |
| 20260508234507 | 66 | 138 | 1.7 | 1.7 | 0.00 | 0.00 | 0.00 | 44 | 1007.3 |
| 20260508234004 | 66 | 128 | 0.9 | 0.9 | 0.00 | 0.00 | 0.00 | 44 | 1007.2 |
| 20260508233503 | 67 | 129 | 0.0 | 0.0 | 0.00 | 0.00 | 0.00 | 45 | 1007.2 |
| 20260508233000 | 67 | 127 | 0.0 | 0.0 | 0.00 | 0.00 | 0.00 | 41 | 1007.1 |
| 20260508232457 | 68 | 136 | 2.6 | 2.6 | 0.00 | 0.00 | 0.00 | 41 | 1006.8 |
| 20260508231954 | 68 | 139 | 2.6 | 2.6 | 0.00 | 0.00 | 0.00 | 43 | 1006.7 |
| 20260508231451 | 68 | 131 | 2.6 | 4.3 | 0.00 | 0.00 | 0.00 | 39 | 1006.8 |
| 20260508230948 | 68 | 135 | 3.5 | 5.2 | 0.00 | 0.00 | 0.00 | 39 | 1006.9 |
| 20260508230444 | 69 | 136 | 4.3 | 5.2 | 0.00 | 0.00 | 0.00 | 39 | 1007.0 |
| 20260508225941 | 69 | 142 | 2.6 | 2.6 | 0.00 | 0.00 | 0.00 | 39 | 1007.1 |
| 20260508225438 | 69 | 126 | 4.3 | 7.0 | 0.00 | 0.00 | 0.00 | 39 | 1007.2 |
| 20260508224936 | 69 | 66 | 5.2 | 7.0 | 0.00 | 0.00 | 0.00 | 38 | 1007.4 |
| 20260508224433 | 70 | 104 | 4.3 | 5.2 | 0.00 | 0.00 | 0.00 | 38 | 1007.2 |
| 20260508223930 | 70 | 136 | 3.5 | 4.3 | 0.00 | 0.00 | 0.00 | 39 | 1007.5 |
| 20260508223428 | 70 | 133 | 3.5 | 6.1 | 0.00 | 0.00 | 0.00 | 40 | 1007.1 |
| 20260508222925 | 70 | 95 | 3.5 | 4.3 | 0.00 | 0.00 | 0.00 | 39 | 1007.3 |
| 20260508222423 | 71 | 139 | 0.9 | 1.7 | 0.00 | 0.00 | 0.00 | 38 | 1007.1 |
| 20260508221919 | 70 | 138 | 0.0 | 0.9 | 0.00 | 0.00 | 0.00 | 37 | 1007.1 |
| 20260508221415 | 71 | 146 | 3.5 | 4.3 | 0.00 | 0.00 | 0.00 | 41 | 1007.3 |
| 20260508220911 | 71 | 127 | 2.6 | 4.3 | 0.00 | 0.00 | 0.00 | 36 | 1007.1 |
| 20260508220408 | 70 | 114 | 3.5 | 4.3 | 0.00 | 0.00 | 0.00 | 37 | 1007.1 |
| 20260508215904 | 71 | 141 | 6.1 | 7.0 | 0.00 | 0.00 | 0.00 | 36 | 1007.0 |
| 20260508215401 | 71 | 151 | 3.5 | 4.3 | 0.00 | 0.00 | 0.00 | 36 | 1007.2 |
| 20260508214858 | 71 | 118 | 5.2 | 6.1 | 0.00 | 0.00 | 0.00 | 35 | 1007.3 |
| 20260508214355 | 71 | 137 | 0.0 | 0.0 | 0.00 | 0.00 | 0.00 | 39 | 1007.2 |
| 20260508213851 | 71 | 142 | 2.6 | 2.6 | 0.00 | 0.00 | 0.00 | 38 | 1007.1 |
| 20260508213349 | 72 | 137 | 5.2 | 6.1 | 0.00 | 0.00 | 0.00 | 36 | 1007.1 |
| 20260508212844 | 71 | 137 | 2.6 | 2.6 | 0.00 | 0.00 | 0.00 | 37 | 1007.3 |
| 20260508212341 | 72 | 138 | 4.3 | 6.1 | 0.00 | 0.00 | 0.00 | 39 | 1007.1 |
| 20260508211837 | 71 | 102 | 4.3 | 5.2 | 0.00 | 0.00 | 0.00 | 36 | 1007.2 |
| 20260508211332 | 71 | 125 | 6.1 | 7.0 | 0.00 | 0.00 | 0.00 | 37 | 1007.3 |
| 20260508210830 | 71 | 147 | 7.8 | 8.7 | 0.00 | 0.00 | 0.00 | 37 | 1007.4 |
| 20260508210327 | 71 | 136 | 4.3 | 5.2 | 0.00 | 0.00 | 0.00 | 38 | 1007.1 |
| 20260508205824 | 71 | 147 | 7.0 | 7.8 | 0.00 | 0.00 | 0.00 | 36 | 1007.4 |
| 20260508205320 | 71 | 121 | 4.3 | 6.1 | 0.00 | 0.00 | 0.00 | 35 | 1007.2 |
| 20260508204816 | 71 | 134 | 2.6 | 2.6 | 0.00 | 0.00 | 0.00 | 37 | 1007.7 |
| 20260508204314 | 71 | 125 | 8.7 | 12.2 | 0.00 | 0.00 | 0.00 | 35 | 1007.4 |
| 20260508203810 | 70 | 95 | 7.0 | 8.7 | 0.00 | 0.00 | 0.00 | 37 | 1007.9 |
| 20260508203306 | 71 | 128 | 3.5 | 4.3 | 0.00 | 0.00 | 0.00 | 42 | 1007.8 |
| 20260508202801 | 71 | 155 | 7.8 | 8.7 | 0.00 | 0.00 | 0.00 | 41 | 1007.6 |
| 20260508202259 | 70 | 121 | 5.2 | 7.0 | 0.00 | 0.00 | 0.00 | 40 | 1007.5 |
| 20260508201756 | 71 | 125 | 2.6 | 4.3 | 0.00 | 0.00 | 0.00 | 39 | 1007.7 |
| 20260508201253 | 71 | 139 | 3.5 | 5.2 | 0.00 | 0.00 | 0.00 | 38 | 1008.0 |
| 20260508200749 | 70 | 170 | 2.6 | 2.6 | 0.00 | 0.00 | 0.00 | 39 | 1007.7 |
| 20260508200246 | 71 | 123 | 6.1 | 8.7 | 0.00 | 0.00 | 0.00 | 42 | 1007.7 |
| 20260508195742 | 71 | 128 | 4.3 | 5.2 | 0.00 | 0.00 | 0.00 | 43 | 1007.6 |
| 20260508195239 | 70 | 134 | 2.6 | 2.6 | 0.00 | 0.00 | 0.00 | 42 | 1007.8 |
| 20260508194735 | 71 | 126 | 7.0 | 7.8 | 0.00 | 0.00 | 0.00 | 39 | 1008.3 |
| 20260508194232 | 70 | 133 | 4.3 | 5.2 | 0.00 | 0.00 | 0.00 | 40 | 1008.2 |
| 20260508193730 | 70 | 125 | 7.0 | 11.3 | 0.00 | 0.00 | 0.00 | 39 | 1008.3 |
| 20260508193226 | 70 | 126 | 5.2 | 6.1 | 0.00 | 0.00 | 0.00 | 43 | 1008.6 |
| 20260508192722 | 70 | 114 | 1.7 | 1.7 | 0.00 | 0.00 | 0.00 | 40 | 1008.9 |
| 20260508192220 | 70 | 135 | 4.3 | 6.1 | 0.00 | 0.00 | 0.00 | 43 | 1008.7 |
| 20260508191717 | 70 | 128 | 2.6 | 4.3 | 0.00 | 0.00 | 0.00 | 40 | 1008.7 |
| 20260508191214 | 70 | 241 | 3.5 | 5.2 | 0.00 | 0.00 | 0.00 | 44 | 1009.0 |
| 20260508190711 | 70 | 112 | 0.9 | 0.9 | 0.00 | 0.00 | 0.00 | 43 | 1009.1 |
| 20260508190207 | 70 | 126 | 3.5 | 4.3 | 0.00 | 0.00 | 0.00 | 40 | 1009.1 |
| 20260508185704 | 70 | 142 | 4.3 | 6.1 | 0.00 | 0.00 | 0.00 | 42 | 1009.3 |
| 20260508185201 | 70 | 108 | 3.5 | 4.3 | 0.00 | 0.00 | 0.00 | 41 | 1009.4 |
| 20260508184658 | 70 | 139 | 1.7 | 2.6 | 0.00 | 0.00 | 0.00 | 46 | 1009.4 |
| 20260508184155 | 70 | 116 | 0.9 | 0.9 | 0.00 | 0.00 | 0.00 | 41 | 1009.5 |
| 20260508183652 | 70 | 104 | 4.3 | 5.2 | 0.00 | 0.00 | 0.00 | 41 | 1009.8 |
| 20260508183148 | 69 | 121 | 4.3 | 6.1 | 0.00 | 0.00 | 0.00 | 40 | 1009.5 |
| 20260508182644 | 69 | 108 | 7.0 | 8.7 | 0.00 | 0.00 | 0.00 | 40 | 1009.9 |
| 20260508182141 | 70 | 71 | 2.6 | 4.3 | 0.00 | 0.00 | 0.00 | 41 | 1009.8 |
| 20260508181636 | 69 | 158 | 0.9 | 1.7 | 0.00 | 0.00 | 0.00 | 41 | 1010.0 |
| 20260508181134 | 69 | 110 | 4.3 | 6.1 | 0.00 | 0.00 | 0.00 | 40 | 1010.1 |
| 20260508180631 | 68 | 152 | 2.6 | 2.6 | 0.00 | 0.00 | 0.00 | 44 | 1010.2 |
| 20260508180127 | 69 | 135 | 5.2 | 7.0 | 0.00 | 0.00 | 0.00 | 45 | 1010.1 |
| 20260508175624 | 69 | 128 | 0.9 | 1.7 | 0.00 | 0.00 | 0.00 | 47 | 1010.5 |
| 20260508175121 | 69 | 128 | 1.7 | 2.6 | 0.00 | 0.00 | 0.00 | 40 | 1010.3 |
| 20260508174618 | 69 | 130 | 7.0 | 7.8 | 0.00 | 0.00 | 0.00 | 45 | 1010.6 |
| 20260508174115 | 70 | 207 | 3.5 | 4.3 | 0.00 | 0.00 | 0.00 | 49 | 1010.5 |
| 20260508173612 | 69 | 141 | 3.5 | 4.3 | 0.00 | 0.00 | 0.00 | 43 | 1010.7 |
| 20260508173108 | 70 | 145 | 1.7 | 1.7 | 0.00 | 0.00 | 0.00 | 47 | 1010.6 |
| 20260508172606 | 69 | 277 | 5.2 | 7.0 | 0.00 | 0.00 | 0.00 | 48 | 1010.8 |
| 20260508172102 | 68 | 244 | 2.6 | 2.6 | 0.00 | 0.00 | 0.00 | 42 | 1010.8 |
| 20260508171558 | 68 | 120 | 5.2 | 7.0 | 0.00 | 0.00 | 0.00 | 42 | 1011.2 |
| 20260508171055 | 68 | 114 | 2.6 | 2.6 | 0.00 | 0.00 | 0.00 | 44 | 1010.9 |
| 20260508170552 | 69 | 122 | 6.1 | 8.7 | 0.00 | 0.00 | 0.00 | 46 | 1011.2 |
| 20260508170049 | 68 | 159 | 1.7 | 1.7 | 0.00 | 0.00 | 0.00 | 45 | 1011.1 |
| 20260508165547 | 68 | 125 | 1.7 | 1.7 | 0.00 | 0.00 | 0.00 | 40 | 1011.4 |
| 20260508165043 | 67 | 189 | 5.2 | 7.0 | 0.00 | 0.00 | 0.00 | 48 | 1011.4 |
| 20260508164540 | 67 | 117 | 2.6 | 5.2 | 0.00 | 0.00 | 0.00 | 42 | 1011.6 |
| 20260508164037 | 67 | 91 | 2.6 | 4.3 | 0.00 | 0.00 | 0.00 | 41 | 1011.6 |
| 20260508163534 | 66 | 164 | 2.6 | 4.3 | 0.00 | 0.00 | 0.00 | 47 | 1011.7 |
| 20260508163031 | 67 | 114 | 7.8 | 9.6 | 0.00 | 0.00 | 0.00 | 42 | 1011.8 |
| 20260508162528 | 66 | 224 | 3.5 | 4.3 | 0.00 | 0.00 | 0.00 | 42 | 1011.7 |
| 20260508162025 | 66 | 177 | 3.5 | 5.2 | 0.00 | 0.00 | 0.00 | 48 | 1012.0 |
| 20260508161522 | 65 | 134 | 0.0 | 0.0 | 0.00 | 0.00 | 0.00 | 48 | 1012.0 |
| 20260508161019 | 65 | 145 | 3.5 | 4.3 | 0.00 | 0.00 | 0.00 | 47 | 1012.2 |
| 20260508160517 | 65 | 127 | 8.7 | 11.3 | 0.00 | 0.00 | 0.00 | 45 | 1012.2 |
| 20260508160014 | 66 | 118 | 0.0 | 0.0 | 0.00 | 0.00 | 0.00 | 47 | 1012.4 |
| 20260508155511 | 65 | 128 | 0.9 | 0.9 | 0.00 | 0.00 | 0.00 | 47 | 1012.4 |
| 20260508155008 | 65 | 126 | 3.5 | 5.2 | 0.00 | 0.00 | 0.00 | 46 | 1012.4 |
| 20260508154505 | 65 | 110 | 5.2 | 6.1 | 0.00 | 0.00 | 0.00 | 50 | 1012.6 |
| 20260508154002 | 65 | 124 | 0.9 | 2.6 | 0.00 | 0.00 | 0.00 | 46 | 1012.3 |
| 20260508153458 | 65 | 159 | 1.7 | 1.7 | 0.00 | 0.00 | 0.00 | 48 | 1012.6 |
| 20260508152955 | 64 | 357 | 2.6 | 6.1 | 0.00 | 0.00 | 0.00 | 47 | 1012.4 |
| 20260508152452 | 64 | 122 | 3.5 | 4.3 | 0.00 | 0.00 | 0.00 | 46 | 1012.4 |
| 20260508151948 | 63 | 304 | 3.5 | 5.2 | 0.00 | 0.00 | 0.00 | 45 | 1012.3 |
| 20260508151444 | 63 | 338 | 4.3 | 6.1 | 0.00 | 0.00 | 0.00 | 46 | 1012.5 |
| 20260508150941 | 63 | 123 | 2.6 | 2.6 | 0.00 | 0.00 | 0.00 | 45 | 1012.3 |
| 20260508150438 | 63 | 113 | 4.3 | 5.2 | 0.00 | 0.00 | 0.00 | 45 | 1012.5 |
| 20260508145933 | 64 | 130 | 4.3 | 5.2 | 0.00 | 0.00 | 0.00 | 48 | 1012.7 |
| 20260508145431 | 62 | 106 | 1.7 | 1.7 | 0.00 | 0.00 | 0.00 | 51 | 1012.6 |
| 20260508144927 | 62 | 146 | 0.0 | 0.9 | 0.00 | 0.00 | 0.00 | 51 | 1012.5 |
| 20260508144425 | 61 | 124 | 2.6 | 2.6 | 0.00 | 0.00 | 0.00 | 49 | 1012.7 |
| 20260508143922 | 61 | 141 | 4.3 | 5.2 | 0.00 | 0.00 | 0.00 | 50 | 1012.3 |
| 20260508143420 | 62 | 136 | 0.0 | 0.0 | 0.00 | 0.00 | 0.00 | 54 | 1012.8 |
| 20260508142916 | 61 | 124 | 1.7 | 1.7 | 0.00 | 0.00 | 0.00 | 53 | 1012.4 |
| 20260508142413 | 60 | 130 | 4.3 | 5.2 | 0.00 | 0.00 | 0.00 | 57 | 1012.4 |
| 20260508141909 | 59 | 148 | 0.9 | 1.7 | 0.00 | 0.00 | 0.00 | 59 | 1012.5 |
| 20260508141406 | 59 | 109 | 0.0 | 0.9 | 0.00 | 0.00 | 0.00 | 58 | 1012.6 |
| 20260508140904 | 58 | 114 | 4.3 | 5.2 | 0.00 | 0.00 | 0.00 | 58 | 1012.7 |
| 20260508140401 | 58 | 122 | 3.5 | 6.1 | 0.00 | 0.00 | 0.00 | 59 | 1012.6 |
| 20260508135856 | 57 | 71 | 5.2 | 6.1 | 0.00 | 0.00 | 0.00 | 59 | 1012.6 |
| 20260508135353 | 56 | 121 | 4.3 | 5.2 | 0.00 | 0.00 | 0.00 | 61 | 1012.6 |
| 20260508134849 | 56 | 120 | 6.1 | 7.0 | 0.00 | 0.00 | 0.00 | 60 | 1012.7 |
| 20260508134346 | 56 | 103 | 4.3 | 7.0 | 0.00 | 0.00 | 0.00 | 64 | 1012.6 |
| 20260508133843 | 55 | 135 | 0.9 | 0.9 | 0.00 | 0.00 | 0.00 | 65 | 1012.6 |
| 20260508133341 | 55 | 133 | 2.6 | 2.6 | 0.00 | 0.00 | 0.00 | 69 | 1012.7 |
| 20260508132837 | 54 | 109 | 1.7 | 1.7 | 0.00 | 0.00 | 0.00 | 75 | 1012.7 |
| 20260508132335 | 53 | 131 | 0.9 | 0.9 | 0.00 | 0.00 | 0.00 | 76 | 1012.9 |
| 20260508131832 | 53 | 120 | 0.0 | 0.0 | 0.00 | 0.00 | 0.00 | 83 | 1012.7 |
| 20260508131327 | 52 | 109 | 1.7 | 1.7 | 0.00 | 0.00 | 0.00 | 81 | 1012.9 |
| 20260508130824 | 51 | 117 | 0.0 | 0.0 | 0.00 | 0.00 | 0.00 | 86 | 1012.9 |
| 20260508130321 | 49 | 119 | 0.9 | 1.7 | 0.00 | 0.00 | 0.00 | 85 | 1012.9 |
| 20260508125817 | 47 | 121 | 1.7 | 1.7 | 0.00 | 0.00 | 0.00 | 88 | 1012.8 |
| 20260508125314 | 46 | 126 | 0.0 | 0.0 | 0.00 | 0.00 | 0.00 | 98 | 1012.7 |
| 20260508124812 | 44 | 125 | 0.0 | 0.9 | 0.00 | 0.00 | 0.00 | 99 | 1012.7 |
| 20260508124308 | 42 | 125 | 0.0 | 0.0 | 0.00 | 0.00 | 0.00 | 99 | 1012.8 |
| 20260508123807 | 41 | 127 | 0.0 | 0.0 | 0.00 | 0.00 | 0.00 | 99 | 1012.8 |
| 20260508123305 | 41 | 123 | 0.0 | 0.0 | 0.00 | 0.00 | 0.00 | 99 | 1013.0 |
| 20260508122801 | 40 | 126 | 0.0 | 0.0 | 0.00 | 0.00 | 0.00 | 99 | 1012.9 |
| 20260508122258 | 39 | 126 | 0.0 | 0.0 | 0.00 | 0.00 | 0.00 | 99 | 1012.7 |
| 20260508121755 | 39 | 126 | 0.0 | 0.0 | 0.00 | 0.00 | 0.00 | 99 | 1012.8 |
| 20260508121253 | 38 | 126 | 0.0 | 0.0 | 0.00 | 0.00 | 0.00 | 99 | 1012.9 |
| 20260508120750 | 37 | 126 | 0.0 | 0.0 | 0.00 | 0.00 | 0.00 | 99 | 1012.8 |
| 20260508120248 | 36 | 129 | 0.0 | 0.0 | 0.00 | 0.00 | 0.00 | 99 | 1012.7 |
| 20260508115746 | 36 | 129 | 0.0 | 0.0 | 0.00 | 0.00 | 0.00 | 99 | 1012.6 |
| 20260508115243 | 36 | 129 | 0.0 | 0.0 | 0.00 | 0.00 | 0.00 | 99 | 1012.8 |
| 20260508114739 | 35 | 130 | 0.0 | 0.0 | 0.00 | 0.00 | 0.00 | 99 | 1012.8 |
| 20260508114236 | 35 | 129 | 0.0 | 0.0 | 0.00 | 0.00 | 0.00 | 99 | 1012.9 |
| 20260508113732 | 34 | 129 | 0.0 | 0.0 | 0.00 | 0.00 | 0.00 | 99 | 1012.8 |
| 20260508113231 | 34 | 129 | 0.0 | 0.0 | 0.00 | 0.00 | 0.00 | 99 | 1012.8 |
| 20260508112721 | 34 | 129 | 0.0 | 0.0 | 0.00 | 0.00 | 0.00 | 99 | 1012.6 |
| 20260508112218 | 34 | 129 | 0.0 | 0.0 | 0.00 | 0.00 | 0.00 | 99 | 1012.8 |
| 20260508111715 | 34 | 129 | 0.0 | 0.0 | 0.00 | 0.00 | 0.00 | 99 | 1012.6 |
| 20260508111213 | 34 | 129 | 0.0 | 0.0 | 0.00 | 0.00 | 0.00 | 99 | 1012.7 |
| 20260508110709 | 33 | 129 | 0.0 | 0.0 | 0.00 | 0.00 | 0.00 | 99 | 1012.6 |
| 20260508110206 | 33 | 129 | 0.0 | 0.0 | 0.00 | 0.00 | 0.00 | 99 | 1012.4 |
| 20260508105700 | 33 | 128 | 0.0 | 0.0 | 0.00 | 0.00 | 0.00 | 99 | 1012.6 |
| 20260508105158 | 33 | 128 | 0.0 | 0.0 | 0.00 | 0.00 | 0.00 | 99 | 1012.4 |
| 20260508104655 | 33 | 128 | 0.0 | 0.0 | 0.00 | 0.00 | 0.00 | 99 | 1012.2 |
| 20260508104152 | 33 | 129 | 0.0 | 0.0 | 0.00 | 0.00 | 0.00 | 99 | 1012.4 |
| 20260508103649 | 33 | 128 | 0.0 | 0.0 | 0.00 | 0.00 | 0.00 | 99 | 1012.4 |
| 20260508103146 | 33 | 129 | 0.0 | 0.0 | 0.00 | 0.00 | 0.00 | 99 | 1012.5 |
| 20260508102643 | 33 | 129 | 0.0 | 0.0 | 0.00 | 0.00 | 0.00 | 99 | 1012.2 |
| 20260508102141 | 34 | 129 | 0.0 | 0.0 | 0.00 | 0.00 | 0.00 | 99 | 1012.2 |
| 20260508101638 | 33 | 128 | 0.0 | 0.0 | 0.00 | 0.00 | 0.00 | 99 | 1012.1 |
| 20260508101136 | 34 | 132 | 0.0 | 0.0 | 0.00 | 0.00 | 0.00 | 99 | 1012.0 |
| 20260508100633 | 34 | 132 | 0.0 | 0.0 | 0.00 | 0.00 | 0.00 | 99 | 1011.8 |
| 20260508100131 | 34 | 132 | 0.0 | 0.0 | 0.00 | 0.00 | 0.00 | 99 | 1012.0 |
| 20260508095627 | 34 | 132 | 0.0 | 0.0 | 0.00 | 0.00 | 0.00 | 99 | 1012.0 |
| 20260508095125 | 34 | 132 | 0.0 | 0.0 | 0.00 | 0.00 | 0.00 | 99 | 1011.8 |
| 20260508094621 | 34 | 132 | 0.0 | 0.0 | 0.00 | 0.00 | 0.00 | 99 | 1011.9 |
| 20260508094118 | 34 | 132 | 0.0 | 0.0 | 0.00 | 0.00 | 0.00 | 99 | 1012.0 |
| 20260508093615 | 34 | 132 | 0.0 | 0.0 | 0.00 | 0.00 | 0.00 | 99 | 1012.0 |
| 20260508093113 | 34 | 131 | 0.0 | 0.0 | 0.00 | 0.00 | 0.00 | 99 | 1011.9 |
| 20260508092610 | 34 | 131 | 0.0 | 0.0 | 0.00 | 0.00 | 0.00 | 99 | 1011.9 |
| 20260508092109 | 34 | 132 | 0.0 | 0.0 | 0.00 | 0.00 | 0.00 | 99 | 1011.9 |
| 20260508091605 | 34 | 131 | 0.0 | 0.0 | 0.00 | 0.00 | 0.00 | 99 | 1011.9 |
| 20260508091102 | 34 | 131 | 0.0 | 0.0 | 0.00 | 0.00 | 0.00 | 99 | 1011.9 |
| 20260508090600 | 34 | 131 | 0.0 | 0.0 | 0.00 | 0.00 | 0.00 | 99 | 1011.6 |
| 20260508090056 | 34 | 132 | 0.0 | 0.0 | 0.00 | 0.00 | 0.00 | 99 | 1011.8 |
| 20260508085553 | 34 | 132 | 0.0 | 0.0 | 0.00 | 0.00 | 0.00 | 99 | 1011.7 |
| 20260508085051 | 34 | 132 | 0.0 | 0.0 | 0.00 | 0.00 | 0.00 | 99 | 1011.9 |
| 20260508084547 | 34 | 131 | 0.0 | 0.0 | 0.00 | 0.00 | 0.00 | 99 | 1011.9 |
| 20260508084044 | 35 | 132 | 0.0 | 0.0 | 0.00 | 0.00 | 0.00 | 99 | 1011.8 |
| 20260508083541 | 35 | 132 | 0.0 | 0.0 | 0.00 | 0.00 | 0.00 | 99 | 1011.7 |
| 20260508083038 | 35 | 132 | 0.0 | 0.0 | 0.00 | 0.00 | 0.00 | 99 | 1011.8 |
| 20260508082534 | 35 | 132 | 0.0 | 0.0 | 0.00 | 0.00 | 0.00 | 99 | 1011.8 |
| 20260508082032 | 35 | 132 | 0.0 | 0.0 | 0.00 | 0.00 | 0.00 | 99 | 1011.7 |
| 20260508081529 | 35 | 131 | 0.0 | 0.0 | 0.00 | 0.00 | 0.00 | 99 | 1011.8 |
| 20260508081025 | 35 | 131 | 0.0 | 0.0 | 0.00 | 0.00 | 0.00 | 99 | 1011.7 |
| 20260508080523 | 35 | 131 | 0.0 | 0.0 | 0.00 | 0.00 | 0.00 | 99 | 1011.7 |
| 20260508080020 | 35 | 131 | 0.0 | 0.0 | 0.00 | 0.00 | 0.00 | 99 | 1011.8 |
| 20260508075516 | 35 | 132 | 0.0 | 0.0 | 0.00 | 0.00 | 0.00 | 99 | 1011.7 |
| 20260508075014 | 35 | 131 | 0.0 | 0.0 | 0.00 | 0.00 | 0.00 | 99 | 1011.7 |
| 20260508074512 | 35 | 132 | 0.0 | 0.0 | 0.00 | 0.00 | 0.00 | 99 | 1011.8 |
| 20260508074008 | 36 | 129 | 0.0 | 0.0 | 0.00 | 0.00 | 0.00 | 99 | 1011.7 |
| 20260508073506 | 35 | 128 | 0.0 | 0.0 | 0.00 | 0.00 | 0.00 | 99 | 1011.7 |
| 20260508073003 | 35 | 128 | 0.0 | 0.0 | 0.00 | 0.00 | 0.00 | 99 | 1011.7 |
| 20260508072459 | 35 | 128 | 0.0 | 0.0 | 0.00 | 0.00 | 0.00 | 99 | 1011.6 |
| 20260508071956 | 36 | 128 | 0.0 | 0.0 | 0.00 | 0.00 | 0.00 | 99 | 1011.7 |
| 20260508071454 | 36 | 128 | 0.0 | 0.0 | 0.00 | 0.00 | 0.00 | 99 | 1011.7 |
| 20260508070951 | 36 | 128 | 0.0 | 0.0 | 0.00 | 0.00 | 0.00 | 99 | 1011.6 |
| 20260508070449 | 36 | 133 | 0.0 | 0.0 | 0.00 | 0.00 | 0.00 | 99 | 1011.5 |
| 20260508065947 | 37 | 136 | 1.7 | 1.7 | 0.00 | 0.00 | 0.00 | 99 | 1011.6 |
| 20260508065445 | 37 | 141 | 0.9 | 1.7 | 0.00 | 0.00 | 0.00 | 99 | 1011.4 |
| 20260508064943 | 37 | 129 | 0.0 | 0.9 | 0.00 | 0.00 | 0.00 | 99 | 1011.5 |
| 20260508064440 | 36 | 131 | 0.0 | 0.0 | 0.00 | 0.00 | 0.00 | 99 | 1011.6 |
| 20260508063937 | 37 | 132 | 0.0 | 0.0 | 0.00 | 0.00 | 0.00 | 99 | 1011.7 |
| 20260508063435 | 37 | 133 | 1.7 | 1.7 | 0.00 | 0.00 | 0.00 | 99 | 1011.6 |
| 20260508062932 | 37 | 131 | 0.0 | 0.0 | 0.00 | 0.00 | 0.00 | 99 | 1011.8 |
| 20260508062430 | 37 | 131 | 0.0 | 0.0 | 0.00 | 0.00 | 0.00 | 99 | 1011.9 |
| 20260508061927 | 37 | 131 | 0.0 | 0.0 | 0.00 | 0.00 | 0.00 | 99 | 1011.7 |
| 20260508061424 | 37 | 131 | 0.9 | 0.9 | 0.00 | 0.00 | 0.00 | 99 | 1011.7 |
| 20260508060920 | 37 | 161 | 1.7 | 1.7 | 0.00 | 0.00 | 0.00 | 99 | 1012.0 |
| 20260508060418 | 37 | 142 | 1.7 | 1.7 | 0.00 | 0.00 | 0.00 | 99 | 1011.6 |
| 20260508055913 | 37 | 135 | 0.0 | 0.0 | 0.00 | 0.00 | 0.00 | 98 | 1011.8 |
| 20260508055410 | 37 | 132 | 0.0 | 0.0 | 0.00 | 0.00 | 0.00 | 98 | 1011.8 |
| 20260508054907 | 37 | 135 | 0.0 | 0.0 | 0.00 | 0.00 | 0.00 | 98 | 1012.0 |
| 20260508054404 | 38 | 133 | 0.0 | 0.0 | 0.00 | 0.00 | 0.00 | 98 | 1011.9 |
| 20260508053901 | 37 | 132 | 0.0 | 0.0 | 0.00 | 0.00 | 0.00 | 98 | 1011.9 |
| 20260508053358 | 38 | 134 | 0.0 | 0.0 | 0.00 | 0.00 | 0.00 | 97 | 1012.0 |
| 20260508052856 | 38 | 133 | 0.0 | 0.0 | 0.00 | 0.00 | 0.00 | 97 | 1011.6 |
| 20260508052353 | 38 | 132 | 0.0 | 0.0 | 0.00 | 0.00 | 0.00 | 97 | 1011.7 |
| 20260508051849 | 38 | 132 | 0.0 | 0.0 | 0.00 | 0.00 | 0.00 | 97 | 1011.7 |
| 20260508051345 | 38 | 131 | 0.0 | 0.0 | 0.00 | 0.00 | 0.00 | 97 | 1011.7 |
| 20260508050841 | 38 | 131 | 0.0 | 0.0 | 0.00 | 0.00 | 0.00 | 97 | 1011.7 |
| 20260508050338 | 38 | 132 | 0.0 | 0.0 | 0.00 | 0.00 | 0.00 | 98 | 1011.7 |
| 20260508045834 | 38 | 133 | 0.0 | 0.9 | 0.00 | 0.00 | 0.00 | 98 | 1011.7 |
| 20260508045332 | 39 | 136 | 0.9 | 0.9 | 0.00 | 0.00 | 0.00 | 98 | 1011.9 |
| 20260508044829 | 39 | 135 | 0.9 | 1.7 | 0.00 | 0.00 | 0.00 | 97 | 1012.0 |
| 20260508044325 | 39 | 133 | 0.9 | 0.9 | 0.00 | 0.00 | 0.00 | 97 | 1011.8 |
| 20260508043822 | 39 | 132 | 0.0 | 0.0 | 0.00 | 0.00 | 0.00 | 97 | 1011.9 |
| 20260508043319 | 39 | 134 | 0.9 | 0.9 | 0.00 | 0.00 | 0.00 | 97 | 1011.9 |
| 20260508042816 | 39 | 136 | 0.9 | 1.7 | 0.00 | 0.00 | 0.00 | 97 | 1011.9 |
| 20260508042314 | 39 | 135 | 0.0 | 0.0 | 0.00 | 0.00 | 0.00 | 96 | 1011.7 |